Time,TemperatureF,DewpointF,PressureIn,WindDirection,WindDirectionDegrees,WindSpeedMPH,WindSpeedGustMPH,Humidity,HourlyPrecipIn,Conditions,Clouds,dailyrainin,SoftwareType,DateUTC
2013-05-11 00:01:00,74.8,72.3,30.09,SE,134,0.0,4.2,92,0.00,,,0.00,WUHU216PEETBRO,2013-05-11 04:01:00,
2013-05-11 00:06:00,74.7,72.2,30.09,SE,134,0.0,0.0,92,0.00,,,0.00,WUHU216PEETBRO,2013-05-11 04:06:00,
2013-05-11 00:11:00,74.6,72.1,30.09,SE,134,0.0,0.0,92,0.00,,,0.00,WUHU216PEETBRO,2013-05-11 04:11:00,
2013-05-11 00:16:00,74.5,71.9,30.09,SE,134,0.0,0.0,92,0.00,,,0.00,WUHU216PEETBRO,2013-05-11 04:16:00,
2013-05-11 00:21:00,74.6,71.8,30.10,SE,134,0.0,0.0,91,0.00,,,0.00,WUHU216PEETBRO,2013-05-11 04:21:00,
2013-05-11 00:26:00,74.7,71.8,30.10,ESE,111,0.0,7.3,91,0.00,,,0.00,WUHU216PEETBRO,2013-05-11 04:26:00,
2013-05-11 00:31:00,74.7,71.6,30.10,ESE,111,0.0,7.3,90,0.00,,,0.00,WUHU216PEETBRO,2013-05-11 04:31:00,
2013-05-11 00:36:00,74.7,71.4,30.10,ESE,111,0.0,0.0,90,0.00,,,0.00,WUHU216PEETBRO,2013-05-11 04:36:00,
2013-05-11 00:41:00,74.6,71.0,30.10,ESE,111,0.0,0.0,89,0.00,,,0.00,WUHU216PEETBRO,2013-05-11 04:41:00,
2013-05-11 00:46:00,74.7,71.0,30.10,ESE,111,0.0,3.3,88,0.00,,,0.00,WUHU216PEETBRO,2013-05-11 04:46:00,
2013-05-11 00:51:00,74.6,70.9,30.10,SSW,210,5.2,7.0,88,0.00,,,0.00,WUHU216PEETBRO,2013-05-11 04:51:00,
2013-05-11 00:56:00,74.4,70.8,30.10,SE,136,3.2,7.1,89,0.00,,,0.00,WUHU216PEETBRO,2013-05-11 04:56:00,
2013-05-11 01:01:00,74.3,70.7,30.10,ESE,110,0.0,7.1,89,0.00,,,0.00,WUHU216PEETBRO,2013-05-11 05:01:00,
2013-05-11 01:06:00,74.1,70.6,30.09,SSE,163,7.9,7.9,89,0.00,,,0.00,WUHU216PEETBRO,2013-05-11 05:06:00,
2013-05-11 01:11:00,73.9,70.3,30.09,ENE,73,0.0,7.9,89,0.00,,,0.00,WUHU216PEETBRO,2013-05-11 05:11:00,
2013-05-11 01:16:00,73.7,70.2,30.09,SE,142,5.8,10.9,89,0.00,,,0.00,WUHU216PEETBRO,2013-05-11 05:16:00,
2013-05-11 01:21:00,73.6,70.1,30.09,SSE,163,4.9,10.9,89,0.00,,,0.00,WUHU216PEETBRO,2013-05-11 05:21:00,
2013-05-11 01:26:00,73.4,70.0,30.09,South,182,5.2,9.0,89,0.00,,,0.00,WUHU216PEETBRO,2013-05-11 05:26:00,
2013-05-11 01:31:00,73.4,70.1,30.09,SE,136,0.0,9.0,89,0.00,,,0.00,WUHU216PEETBRO,2013-05-11 05:31:00,
2013-05-11 01:36:00,73.3,70.0,30.09,ESE,122,0.0,7.3,90,0.00,,,0.00,WUHU216PEETBRO,2013-05-11 05:36:00,
2013-05-11 01:42:00,73.1,70.0,30.08,SE,128,4.4,7.3,90,0.00,,,0.00,WUHU216PEETBRO,2013-05-11 05:42:00,
2013-05-11 01:47:00,73.0,69.9,30.08,South,170,0.0,5.9,90,0.00,,,0.00,WUHU216PEETBRO,2013-05-11 05:47:00,
2013-05-11 01:52:00,72.7,69.8,30.08,SSE,165,0.0,4.3,91,0.00,,,0.00,WUHU216PEETBRO,2013-05-11 05:52:00,
2013-05-11 01:56:00,72.7,69.9,30.08,SE,145,0.0,4.7,91,0.00,,,0.00,WUHU216PEETBRO,2013-05-11 05:56:00,
2013-05-11 02:01:00,72.6,69.8,30.07,SE,124,0.0,6.3,91,0.00,,,0.00,WUHU216PEETBRO,2013-05-11 06:01:00,
2013-05-11 02:06:00,72.4,69.6,30.07,SE,146,6.8,6.8,91,0.00,,,0.00,WUHU216PEETBRO,2013-05-11 06:06:00,
2013-05-11 02:11:00,72.4,69.6,30.07,SSE,152,5.6,6.8,91,0.00,,,0.00,WUHU216PEETBRO,2013-05-11 06:11:00,
2013-05-11 02:16:00,72.3,69.6,30.07,South,169,7.2,8.3,91,0.00,,,0.00,WUHU216PEETBRO,2013-05-11 06:16:00,
2013-05-11 02:21:00,72.3,69.6,30.07,SSE,155,0.0,8.3,91,0.00,,,0.00,WUHU216PEETBRO,2013-05-11 06:21:00,
2013-05-11 02:26:00,72.3,69.6,30.07,SSE,152,3.5,8.1,91,0.00,,,0.00,WUHU216PEETBRO,2013-05-11 06:26:00,
2013-05-11 02:31:00,72.2,69.5,30.07,SE,138,3.2,8.1,91,0.00,,,0.00,WUHU216PEETBRO,2013-05-11 06:31:00,
2013-05-11 02:37:00,72.2,69.5,30.07,SSE,158,0.0,7.0,91,0.00,,,0.00,WUHU216PEETBRO,2013-05-11 06:37:00,
2013-05-11 02:42:00,72.2,69.5,30.07,SSE,167,4.3,6.8,91,0.00,,,0.00,WUHU216PEETBRO,2013-05-11 06:42:00,
2013-05-11 02:47:00,72.2,69.5,30.07,SSE,148,0.0,6.8,91,0.00,,,0.00,WUHU216PEETBRO,2013-05-11 06:47:00,
2013-05-11 02:52:00,72.1,69.4,30.07,SSE,159,0.0,6.8,91,0.00,,,0.00,WUHU216PEETBRO,2013-05-11 06:52:00,
2013-05-11 02:57:00,71.9,69.3,30.06,SE,136,0.0,6.6,92,0.00,,,0.00,WUHU216PEETBRO,2013-05-11 06:57:00,
2013-05-11 03:02:00,71.9,69.3,30.07,SE,141,0.0,6.6,92,0.00,,,0.00,WUHU216PEETBRO,2013-05-11 07:02:00,
2013-05-11 03:07:00,72.0,69.4,30.06,SE,141,0.0,4.9,92,0.00,,,0.00,WUHU216PEETBRO,2013-05-11 07:07:00,
2013-05-11 03:12:00,71.8,69.3,30.06,South,183,0.0,2.7,92,0.00,,,0.00,WUHU216PEETBRO,2013-05-11 07:12:00,
2013-05-11 03:17:00,71.8,69.3,30.06,South,183,0.0,2.7,92,0.00,,,0.00,WUHU216PEETBRO,2013-05-11 07:17:00,
2013-05-11 03:22:00,71.7,69.2,30.07,South,183,0.0,0.0,92,0.00,,,0.00,WUHU216PEETBRO,2013-05-11 07:22:00,
2013-05-11 03:27:00,71.6,69.2,30.06,SSE,159,0.0,3.2,92,0.00,,,0.00,WUHU216PEETBRO,2013-05-11 07:27:00,
2013-05-11 03:32:00,71.6,69.2,30.06,SSE,159,0.0,3.2,92,0.00,,,0.00,WUHU216PEETBRO,2013-05-11 07:32:00,
2013-05-11 03:37:00,71.5,69.2,30.07,SSE,159,0.0,0.0,93,0.00,,,0.00,WUHU216PEETBRO,2013-05-11 07:37:00,
2013-05-11 03:42:00,71.5,69.2,30.07,SSE,159,0.0,0.0,93,0.00,,,0.00,WUHU216PEETBRO,2013-05-11 07:42:00,
2013-05-11 03:47:00,71.5,69.2,30.06,SW,225,0.0,0.0,93,0.00,,,0.00,WUHU216PEETBRO,2013-05-11 07:47:00,
2013-05-11 03:52:00,71.5,69.3,30.06,SW,225,0.0,0.0,93,0.00,,,0.00,WUHU216PEETBRO,2013-05-11 07:52:00,
2013-05-11 03:57:00,71.4,69.2,30.06,SSW,197,0.0,0.0,93,0.00,,,0.00,WUHU216PEETBRO,2013-05-11 07:57:00,
2013-05-11 04:02:00,71.4,69.3,30.06,SSW,197,0.0,0.0,93,0.00,,,0.00,WUHU216PEETBRO,2013-05-11 08:02:00,
2013-05-11 04:07:00,71.3,69.2,30.06,SSW,197,0.0,0.0,93,0.00,,,0.00,WUHU216PEETBRO,2013-05-11 08:07:00,
2013-05-11 04:12:00,71.4,69.3,30.05,SSW,197,0.0,0.0,93,0.00,,,0.00,WUHU216PEETBRO,2013-05-11 08:12:00,
2013-05-11 04:17:00,71.4,69.4,30.05,SSW,197,0.0,0.0,94,0.00,,,0.00,WUHU216PEETBRO,2013-05-11 08:17:00,
2013-05-11 04:22:00,71.3,69.3,30.05,SSW,197,0.0,0.0,94,0.00,,,0.00,WUHU216PEETBRO,2013-05-11 08:22:00,
2013-05-11 04:27:00,71.4,69.4,30.05,SSW,197,0.0,0.0,94,0.00,,,0.00,WUHU216PEETBRO,2013-05-11 08:27:00,
2013-05-11 04:32:00,71.4,69.4,30.05,SSW,197,0.0,0.0,94,0.00,,,0.00,WUHU216PEETBRO,2013-05-11 08:32:00,
2013-05-11 04:37:00,71.4,69.5,30.04,SSW,197,0.0,0.0,94,0.00,,,0.00,WUHU216PEETBRO,2013-05-11 08:37:00,
2013-05-11 04:42:00,71.4,69.5,30.04,SSW,197,0.0,0.0,94,0.00,,,0.00,WUHU216PEETBRO,2013-05-11 08:42:00,
2013-05-11 04:47:00,71.3,69.5,30.04,SSW,197,0.0,0.0,94,0.00,,,0.00,WUHU216PEETBRO,2013-05-11 08:47:00,
2013-05-11 04:52:00,71.3,69.4,30.04,SSW,197,0.0,0.0,94,0.00,,,0.00,WUHU216PEETBRO,2013-05-11 08:52:00,
2013-05-11 04:57:00,71.3,69.5,30.04,SSW,197,0.0,0.0,94,0.00,,,0.00,WUHU216PEETBRO,2013-05-11 08:57:00,
2013-05-11 05:02:00,71.3,69.5,30.04,SSW,197,0.0,0.0,94,0.00,,,0.00,WUHU216PEETBRO,2013-05-11 09:02:00,
2013-05-11 05:07:00,71.3,69.5,30.05,SSW,197,0.0,0.0,94,0.00,,,0.00,WUHU216PEETBRO,2013-05-11 09:07:00,
2013-05-11 05:12:00,71.3,69.5,30.05,SSW,197,0.0,0.0,94,0.00,,,0.00,WUHU216PEETBRO,2013-05-11 09:12:00,
2013-05-11 05:17:00,71.3,69.5,30.05,SSW,197,0.0,0.0,94,0.00,,,0.00,WUHU216PEETBRO,2013-05-11 09:17:00,
2013-05-11 05:22:00,71.2,69.4,30.05,SSW,197,0.0,0.0,94,0.00,,,0.00,WUHU216PEETBRO,2013-05-11 09:22:00,
2013-05-11 05:27:00,71.2,69.4,30.05,SSW,197,0.0,0.0,94,0.00,,,0.00,WUHU216PEETBRO,2013-05-11 09:27:00,
2013-05-11 05:32:00,71.1,69.4,30.05,SSW,197,0.0,0.0,94,0.00,,,0.00,WUHU216PEETBRO,2013-05-11 09:32:00,
2013-05-11 05:37:00,71.0,69.3,30.05,SSW,197,0.0,0.0,95,0.00,,,0.00,WUHU216PEETBRO,2013-05-11 09:37:00,
2013-05-11 05:42:00,70.9,69.2,30.05,SSW,197,0.0,0.0,95,0.00,,,0.00,WUHU216PEETBRO,2013-05-11 09:42:00,
2013-05-11 05:47:00,70.9,69.2,30.05,SSW,197,0.0,0.0,95,0.00,,,0.00,WUHU216PEETBRO,2013-05-11 09:47:00,
2013-05-11 05:52:00,70.9,69.3,30.06,SSW,197,0.0,0.0,95,0.00,,,0.00,WUHU216PEETBRO,2013-05-11 09:52:00,
2013-05-11 05:57:00,70.8,69.2,30.06,SSW,197,0.0,0.0,95,0.00,,,0.00,WUHU216PEETBRO,2013-05-11 09:57:00,
2013-05-11 06:02:00,70.8,69.2,30.06,SSW,197,0.0,0.0,95,0.00,,,0.00,WUHU216PEETBRO,2013-05-11 10:02:00,
2013-05-11 06:07:00,70.9,69.4,30.06,SSW,197,0.0,0.0,95,0.00,,,0.00,WUHU216PEETBRO,2013-05-11 10:07:00,
2013-05-11 06:12:00,70.9,69.4,30.06,SSW,197,0.0,0.0,95,0.00,,,0.00,WUHU216PEETBRO,2013-05-11 10:12:00,
2013-05-11 06:17:00,71.0,69.5,30.06,SSW,197,0.0,0.0,95,0.00,,,0.00,WUHU216PEETBRO,2013-05-11 10:17:00,
2013-05-11 06:22:00,71.0,69.5,30.07,South,173,0.0,4.8,95,0.00,,,0.00,WUHU216PEETBRO,2013-05-11 10:22:00,
2013-05-11 06:27:00,71.0,69.5,30.06,SSE,152,0.0,4.8,95,0.00,,,0.00,WUHU216PEETBRO,2013-05-11 10:27:00,
2013-05-11 06:32:00,70.9,69.5,30.07,SSE,155,0.0,5.2,95,0.00,,,0.00,WUHU216PEETBRO,2013-05-11 10:32:00,
2013-05-11 06:37:00,71.0,69.5,30.07,SSE,155,0.0,5.2,95,0.00,,,0.00,WUHU216PEETBRO,2013-05-11 10:37:00,
2013-05-11 06:42:00,71.1,69.6,30.07,ESE,118,0.0,0.0,95,0.00,,,0.00,WUHU216PEETBRO,2013-05-11 10:42:00,
2013-05-11 06:47:00,71.1,69.6,30.07,ESE,118,0.0,0.0,95,0.00,,,0.00,WUHU216PEETBRO,2013-05-11 10:47:00,
2013-05-11 06:52:00,71.1,69.6,30.07,ESE,118,0.0,0.0,95,0.00,,,0.00,WUHU216PEETBRO,2013-05-11 10:52:00,
2013-05-11 06:57:00,71.1,69.6,30.08,SSE,163,0.0,5.2,95,0.00,,,0.00,WUHU216PEETBRO,2013-05-11 10:57:00,
2013-05-11 07:02:00,71.2,69.7,30.08,South,180,0.0,5.2,95,0.00,,,0.00,WUHU216PEETBRO,2013-05-11 11:02:00,
2013-05-11 07:07:00,71.2,69.7,30.07,South,180,0.0,3.5,95,0.00,,,0.00,WUHU216PEETBRO,2013-05-11 11:07:00,
2013-05-11 07:12:00,71.2,69.7,30.07,South,180,0.0,0.0,95,0.00,,,0.00,WUHU216PEETBRO,2013-05-11 11:12:00,
2013-05-11 07:17:00,71.3,69.8,30.08,South,180,0.0,0.0,95,0.00,,,0.00,WUHU216PEETBRO,2013-05-11 11:17:00,
2013-05-11 07:22:00,71.3,69.8,30.07,South,180,0.0,0.0,95,0.00,,,0.00,WUHU216PEETBRO,2013-05-11 11:22:00,
2013-05-11 07:27:00,71.5,70.0,30.07,South,180,0.0,0.0,95,0.00,,,0.00,WUHU216PEETBRO,2013-05-11 11:27:00,
2013-05-11 07:32:00,71.6,70.1,30.07,South,180,0.0,0.0,95,0.00,,,0.00,WUHU216PEETBRO,2013-05-11 11:32:00,
2013-05-11 07:37:00,71.8,70.3,30.07,South,180,0.0,0.0,95,0.00,,,0.00,WUHU216PEETBRO,2013-05-11 11:37:00,
2013-05-11 07:42:00,71.9,70.3,30.07,South,180,0.0,0.0,95,0.00,,,0.00,WUHU216PEETBRO,2013-05-11 11:42:00,
2013-05-11 07:47:00,72.0,70.3,30.07,South,180,0.0,0.0,95,0.00,,,0.00,WUHU216PEETBRO,2013-05-11 11:47:00,
2013-05-11 07:52:00,72.2,70.5,30.07,South,180,0.0,0.0,95,0.00,,,0.00,WUHU216PEETBRO,2013-05-11 11:52:00,
2013-05-11 07:57:00,72.4,70.6,30.07,South,180,0.0,0.0,94,0.00,,,0.00,WUHU216PEETBRO,2013-05-11 11:57:00,
2013-05-11 08:02:00,72.8,70.8,30.07,South,180,0.0,0.0,94,0.00,,,0.00,WUHU216PEETBRO,2013-05-11 12:02:00,
2013-05-11 08:07:00,73.1,71.0,30.07,South,180,0.0,0.0,93,0.00,,,0.00,WUHU216PEETBRO,2013-05-11 12:07:00,
2013-05-11 08:12:00,73.6,71.4,30.08,South,180,0.0,0.0,93,0.00,,,0.00,WUHU216PEETBRO,2013-05-11 12:12:00,
2013-05-11 08:17:00,74.1,71.4,30.08,SSE,160,0.0,3.5,91,0.00,,,0.00,WUHU216PEETBRO,2013-05-11 12:17:00,
2013-05-11 08:22:00,74.5,71.5,30.08,South,177,0.0,3.5,90,0.00,,,0.00,WUHU216PEETBRO,2013-05-11 12:22:00,
2013-05-11 08:27:00,74.4,70.7,30.09,South,180,6.3,7.9,88,0.00,,,0.00,WUHU216PEETBRO,2013-05-11 12:27:00,
2013-05-11 08:32:00,74.5,70.7,30.09,ESE,118,2.5,7.9,88,0.00,,,0.00,WUHU216PEETBRO,2013-05-11 12:32:00,
2013-05-11 08:37:00,75.0,70.9,30.09,SW,214,5.3,7.0,87,0.00,,,0.00,WUHU216PEETBRO,2013-05-11 12:37:00,
2013-05-11 08:42:00,75.2,70.6,30.09,SW,227,3.4,7.0,85,0.00,,,0.00,WUHU216PEETBRO,2013-05-11 12:42:00,
2013-05-11 08:47:00,75.3,70.4,30.09,SSE,152,5.2,7.0,85,0.00,,,0.00,WUHU216PEETBRO,2013-05-11 12:47:00,
2013-05-11 08:52:00,75.4,70.2,30.09,SSE,156,0.0,5.4,84,0.00,,,0.00,WUHU216PEETBRO,2013-05-11 12:52:00,
2013-05-11 08:57:00,75.5,70.0,30.09,South,187,3.4,5.5,83,0.00,,,0.00,WUHU216PEETBRO,2013-05-11 12:57:00,
2013-05-11 09:02:00,75.9,70.1,30.08,SSE,163,0.0,5.5,82,0.00,,,0.00,WUHU216PEETBRO,2013-05-11 13:02:00,
2013-05-11 09:07:00,76.3,69.7,30.08,SSE,159,5.6,6.9,80,0.00,,,0.00,WUHU216PEETBRO,2013-05-11 13:07:00,
2013-05-11 09:12:00,76.7,70.0,30.09,SSE,165,5.0,6.9,79,0.00,,,0.00,WUHU216PEETBRO,2013-05-11 13:12:00,
2013-05-11 09:17:00,77.0,69.9,30.08,SW,228,5.4,7.0,78,0.00,,,0.00,WUHU216PEETBRO,2013-05-11 13:17:00,
2013-05-11 09:22:00,77.5,70.2,30.08,SSE,152,0.0,7.0,78,0.00,,,0.00,WUHU216PEETBRO,2013-05-11 13:22:00,
2013-05-11 09:27:00,78.0,70.5,30.08,SW,220,3.3,7.0,77,0.00,,,0.00,WUHU216PEETBRO,2013-05-11 13:27:00,
2013-05-11 09:32:00,78.3,70.0,30.08,SSE,160,5.3,7.3,75,0.00,,,0.00,WUHU216PEETBRO,2013-05-11 13:32:00,
2013-05-11 09:37:00,78.5,70.6,30.08,SSE,155,0.0,7.3,76,0.00,,,0.00,WUHU216PEETBRO,2013-05-11 13:37:00,
2013-05-11 09:42:00,78.9,70.1,30.08,South,180,5.2,8.7,74,0.00,,,0.00,WUHU216PEETBRO,2013-05-11 13:42:00,
2013-05-11 09:47:00,79.3,70.4,30.08,SW,217,6.3,8.7,74,0.00,,,0.00,WUHU216PEETBRO,2013-05-11 13:47:00,
2013-05-11 09:52:00,79.4,69.9,30.09,South,172,2.7,7.9,72,0.00,,,0.00,WUHU216PEETBRO,2013-05-11 13:52:00,
2013-05-11 09:57:00,79.5,69.8,30.08,South,173,8.9,9.1,72,0.00,,,0.00,WUHU216PEETBRO,2013-05-11 13:57:00,
2013-05-11 10:02:00,79.8,69.9,30.09,South,189,4.6,9.1,71,0.00,,,0.00,WUHU216PEETBRO,2013-05-11 14:02:00,
2013-05-11 10:07:00,80.2,70.1,30.09,SSW,200,4.7,10.0,71,0.00,,,0.00,WUHU216PEETBRO,2013-05-11 14:07:00,
2013-05-11 10:12:00,80.3,69.6,30.09,South,184,4.2,10.0,69,0.00,,,0.00,WUHU216PEETBRO,2013-05-11 14:12:00,
2013-05-11 10:17:00,80.7,69.8,30.09,SW,217,5.2,9.6,69,0.00,,,0.00,WUHU216PEETBRO,2013-05-11 14:17:00,
2013-05-11 10:22:00,81.1,69.4,30.09,ESE,103,8.1,11.4,67,0.00,,,0.00,WUHU216PEETBRO,2013-05-11 14:22:00,
2013-05-11 10:27:00,81.2,69.1,30.09,South,191,5.9,11.4,66,0.00,,,0.00,WUHU216PEETBRO,2013-05-11 14:27:00,
2013-05-11 10:32:00,81.6,69.2,30.09,South,176,5.3,10.1,66,0.00,,,0.00,WUHU216PEETBRO,2013-05-11 14:32:00,
2013-05-11 10:37:00,82.0,69.1,30.09,WSW,242,7.5,9.1,64,0.00,,,0.00,WUHU216PEETBRO,2013-05-11 14:37:00,
2013-05-11 10:42:00,82.2,69.0,30.09,SW,217,5.7,9.8,64,0.00,,,0.00,WUHU216PEETBRO,2013-05-11 14:42:00,
2013-05-11 10:47:00,82.4,69.3,30.09,South,189,7.3,9.8,64,0.00,,,0.00,WUHU216PEETBRO,2013-05-11 14:47:00,
2013-05-11 10:52:00,82.6,69.5,30.09,South,175,5.1,9.8,64,0.00,,,0.00,WUHU216PEETBRO,2013-05-11 14:52:00,
2013-05-11 10:57:00,83.1,68.7,30.09,WSW,239,8.7,11.2,61,0.00,,,0.00,WUHU216PEETBRO,2013-05-11 14:57:00,
2013-05-11 11:03:00,83.4,68.4,30.09,SW,230,6.2,11.2,60,0.00,,,0.00,WUHU216PEETBRO,2013-05-11 15:03:00,
2013-05-11 11:08:00,83.5,68.3,30.09,SW,217,9.1,12.2,60,0.00,,,0.00,WUHU216PEETBRO,2013-05-11 15:08:00,
2013-05-11 11:13:00,83.7,67.9,30.09,SSE,152,6.5,12.2,59,0.00,,,0.00,WUHU216PEETBRO,2013-05-11 15:13:00,
2013-05-11 11:18:00,83.6,68.1,30.08,SW,224,8.9,9.9,59,0.00,,,0.00,WUHU216PEETBRO,2013-05-11 15:18:00,
2013-05-11 11:23:00,83.3,67.7,30.08,SW,232,6.6,11.6,59,0.00,,,0.00,WUHU216PEETBRO,2013-05-11 15:23:00,
2013-05-11 11:28:00,83.3,68.1,30.08,SE,143,5.0,11.6,60,0.00,,,0.00,WUHU216PEETBRO,2013-05-11 15:28:00,
2013-05-11 11:33:00,83.5,67.9,30.07,SW,228,5.7,9.1,59,0.00,,,0.00,WUHU216PEETBRO,2013-05-11 15:33:00,
2013-05-11 11:38:00,83.7,67.3,30.07,South,187,7.0,9.0,57,0.00,,,0.00,WUHU216PEETBRO,2013-05-11 15:38:00,
2013-05-11 11:43:00,84.2,67.1,30.07,SE,128,6.5,10.4,56,0.00,,,0.00,WUHU216PEETBRO,2013-05-11 15:43:00,
2013-05-11 11:48:00,84.5,67.0,30.07,SW,215,12.4,12.4,56,0.00,,,0.00,WUHU216PEETBRO,2013-05-11 15:48:00,
2013-05-11 11:53:00,84.7,67.1,30.07,SSE,162,2.5,12.4,55,0.00,,,0.00,WUHU216PEETBRO,2013-05-11 15:53:00,
2013-05-11 11:58:00,84.9,66.5,30.06,SW,234,8.8,11.2,54,0.00,,,0.00,WUHU216PEETBRO,2013-05-11 15:58:00,
2013-05-11 12:03:00,85.2,66.8,30.06,South,176,4.9,11.2,54,0.00,,,0.00,WUHU216PEETBRO,2013-05-11 16:03:00,
2013-05-11 12:08:00,85.5,66.6,30.06,SSE,149,7.2,10.0,53,0.00,,,0.00,WUHU216PEETBRO,2013-05-11 16:08:00,
2013-05-11 12:13:00,85.9,66.5,30.06,WSW,247,8.7,12.1,52,0.00,,,0.00,WUHU216PEETBRO,2013-05-11 16:13:00,
2013-05-11 12:18:00,86.2,67.3,30.06,SW,223,7.3,12.1,53,0.00,,,0.00,WUHU216PEETBRO,2013-05-11 16:18:00,
2013-05-11 12:23:00,86.4,66.1,30.07,SSE,148,6.5,9.6,51,0.00,,,0.00,WUHU216PEETBRO,2013-05-11 16:23:00,
2013-05-11 12:28:00,86.5,66.2,30.06,SW,221,4.5,12.2,51,0.00,,,0.00,WUHU216PEETBRO,2013-05-11 16:28:00,
2013-05-11 12:33:00,86.5,65.6,30.06,WSW,244,10.8,12.2,50,0.00,,,0.00,WUHU216PEETBRO,2013-05-11 16:33:00,
2013-05-11 12:38:00,86.6,65.3,30.06,SSW,199,5.5,10.8,49,0.00,,,0.00,WUHU216PEETBRO,2013-05-11 16:38:00,
2013-05-11 12:43:00,86.6,66.0,30.06,SSW,204,4.8,10.8,50,0.00,,,0.00,WUHU216PEETBRO,2013-05-11 16:43:00,
2013-05-11 12:48:00,86.5,65.4,30.06,WNW,287,4.2,8.8,49,0.00,,,0.00,WUHU216PEETBRO,2013-05-11 16:48:00,
2013-05-11 12:53:00,86.0,65.0,30.06,SW,225,4.7,9.4,50,0.00,,,0.00,WUHU216PEETBRO,2013-05-11 16:53:00,
2013-05-11 12:58:00,85.9,65.9,30.06,South,172,2.6,9.4,51,0.00,,,0.00,WUHU216PEETBRO,2013-05-11 16:58:00,
2013-05-11 13:03:00,86.1,64.8,30.06,WSW,252,4.2,16.0,49,0.00,,,0.00,WUHU216PEETBRO,2013-05-11 17:03:00,
2013-05-11 13:08:00,86.4,65.1,30.06,SW,214,10.3,16.0,49,0.00,,,0.00,WUHU216PEETBRO,2013-05-11 17:08:00,
2013-05-11 13:13:00,87.2,65.4,30.05,South,186,8.9,12.6,48,0.00,,,0.00,WUHU216PEETBRO,2013-05-11 17:13:00,
2013-05-11 13:18:00,87.5,64.4,30.05,South,183,7.3,12.6,46,0.00,,,0.00,WUHU216PEETBRO,2013-05-11 17:18:00,
2013-05-11 13:23:00,87.6,64.5,30.05,South,189,5.2,11.6,46,0.00,,,0.00,WUHU216PEETBRO,2013-05-11 17:23:00,
2013-05-11 13:28:00,87.6,64.2,30.04,SW,227,9.5,11.9,46,0.00,,,0.00,WUHU216PEETBRO,2013-05-11 17:28:00,
2013-05-11 13:33:00,88.1,65.2,30.04,SW,234,10.4,11.9,47,0.00,,,0.00,WUHU216PEETBRO,2013-05-11 17:33:00,
2013-05-11 13:38:00,88.1,64.2,30.04,WSW,248,8.7,12.9,45,0.00,,,0.00,WUHU216PEETBRO,2013-05-11 17:38:00,
2013-05-11 13:43:00,87.8,64.6,30.04,South,179,2.9,12.9,46,0.00,,,0.00,WUHU216PEETBRO,2013-05-11 17:43:00,
2013-05-11 13:48:00,88.3,64.0,30.04,SW,232,9.0,11.5,45,0.00,,,0.00,WUHU216PEETBRO,2013-05-11 17:48:00,
2013-05-11 13:53:00,88.7,63.8,30.04,South,187,5.7,11.5,44,0.00,,,0.00,WUHU216PEETBRO,2013-05-11 17:53:00,
2013-05-11 13:58:00,88.6,63.7,30.03,South,190,6.7,10.1,44,0.00,,,0.00,WUHU216PEETBRO,2013-05-11 17:58:00,
2013-05-11 14:03:00,88.3,64.3,30.04,WSW,239,6.0,10.1,45,0.00,,,0.00,WUHU216PEETBRO,2013-05-11 18:03:00,
2013-05-11 14:08:00,88.9,64.2,30.04,SW,215,11.7,13.7,44,0.00,,,0.00,WUHU216PEETBRO,2013-05-11 18:08:00,
2013-05-11 14:13:00,88.7,63.7,30.04,SSW,207,6.4,13.8,44,0.00,,,0.00,WUHU216PEETBRO,2013-05-11 18:13:00,
2013-05-11 14:18:00,88.7,62.7,30.04,SSE,151,6.8,13.8,42,0.00,,,0.00,WUHU216PEETBRO,2013-05-11 18:18:00,
2013-05-11 14:23:00,88.5,62.5,30.03,SW,228,6.8,10.6,42,0.00,,,0.00,WUHU216PEETBRO,2013-05-11 18:23:00,
2013-05-11 14:28:00,88.5,63.5,30.02,SSW,213,11.0,12.0,44,0.00,,,0.00,WUHU216PEETBRO,2013-05-11 18:28:00,
2013-05-11 14:33:00,89.4,63.9,30.02,SSW,194,8.1,12.0,43,0.00,,,0.00,WUHU216PEETBRO,2013-05-11 18:33:00,
2013-05-11 14:38:00,89.5,63.0,30.03,South,176,9.7,11.7,42,0.00,,,0.00,WUHU216PEETBRO,2013-05-11 18:38:00,
2013-05-11 14:43:00,89.4,63.7,30.02,SW,220,10.1,11.7,43,0.00,,,0.00,WUHU216PEETBRO,2013-05-11 18:43:00,
2013-05-11 14:48:00,89.4,63.0,30.02,SW,230,4.8,10.8,42,0.00,,,0.00,WUHU216PEETBRO,2013-05-11 18:48:00,
2013-05-11 14:53:00,89.2,63.6,30.02,WSW,248,7.5,12.9,43,0.00,,,0.00,WUHU216PEETBRO,2013-05-11 18:53:00,
2013-05-11 14:58:00,89.5,63.7,30.01,SW,227,6.3,12.9,42,0.00,,,0.00,WUHU216PEETBRO,2013-05-11 18:58:00,
2013-05-11 15:03:00,89.1,63.9,30.01,SSW,194,5.0,9.8,43,0.00,,,0.00,WUHU216PEETBRO,2013-05-11 19:03:00,
2013-05-11 15:08:00,88.7,63.8,30.01,WSW,241,4.5,9.8,44,0.00,,,0.00,WUHU216PEETBRO,2013-05-11 19:08:00,
2013-05-11 15:13:00,88.1,63.4,30.01,WNW,286,4.7,10.4,44,0.00,,,0.00,WUHU216PEETBRO,2013-05-11 19:13:00,
2013-05-11 15:18:00,88.0,63.3,30.01,SSW,193,5.4,10.4,44,0.00,,,0.00,WUHU216PEETBRO,2013-05-11 19:18:00,
2013-05-11 15:23:00,88.7,63.2,30.01,SSE,160,5.5,12.6,43,0.00,,,0.00,WUHU216PEETBRO,2013-05-11 19:23:00,
2013-05-11 15:28:00,89.0,63.8,30.01,South,186,7.8,12.6,43,0.00,,,0.00,WUHU216PEETBRO,2013-05-11 19:28:00,
2013-05-11 15:33:00,88.5,63.9,30.00,SSW,196,2.9,9.1,44,0.00,,,0.00,WUHU216PEETBRO,2013-05-11 19:33:00,
2013-05-11 15:38:00,88.4,63.9,30.00,SE,146,0.0,9.1,44,0.00,,,0.00,WUHU216PEETBRO,2013-05-11 19:38:00,
2013-05-11 15:43:00,88.6,64.4,30.00,SW,231,5.4,5.5,45,0.00,,,0.00,WUHU216PEETBRO,2013-05-11 19:43:00,
2013-05-11 15:48:00,88.3,64.4,30.00,SW,225,5.7,8.4,45,0.00,,,0.00,WUHU216PEETBRO,2013-05-11 19:48:00,
2013-05-11 15:53:00,87.3,66.7,30.01,SW,214,9.6,12.8,50,0.00,,,0.00,WUHU216PEETBRO,2013-05-11 19:53:00,
2013-05-11 15:58:00,85.7,70.5,30.01,West,276,5.4,12.8,60,0.03,,,0.03,WUHU216PEETBRO,2013-05-11 19:58:00,
2013-05-11 16:03:00,84.1,72.8,30.01,WSW,241,4.3,11.7,68,0.04,,,0.04,WUHU216PEETBRO,2013-05-11 20:03:00,
2013-05-11 16:08:00,83.2,73.4,30.01,WSW,241,0.0,8.1,72,0.04,,,0.04,WUHU216PEETBRO,2013-05-11 20:08:00,
2013-05-11 16:13:00,82.6,73.2,30.01,West,261,7.2,12.1,73,0.04,,,0.04,WUHU216PEETBRO,2013-05-11 20:13:00,
2013-05-11 16:18:00,82.7,72.4,30.01,SSE,165,11.9,16.0,71,0.04,,,0.04,WUHU216PEETBRO,2013-05-11 20:18:00,
2013-05-11 16:23:00,82.6,70.1,30.01,South,190,5.0,16.0,65,0.04,,,0.04,WUHU216PEETBRO,2013-05-11 20:23:00,
2013-05-11 16:28:00,81.7,69.9,30.02,SSW,208,7.8,15.3,67,0.04,,,0.04,WUHU216PEETBRO,2013-05-11 20:28:00,
2013-05-11 16:33:00,81.5,70.2,30.01,South,183,7.5,15.3,68,0.04,,,0.04,WUHU216PEETBRO,2013-05-11 20:33:00,
2013-05-11 16:38:00,81.3,69.0,30.01,SSW,213,7.7,13.2,66,0.04,,,0.04,WUHU216PEETBRO,2013-05-11 20:38:00,
2013-05-11 16:43:00,81.5,69.0,30.01,SSE,158,7.8,13.2,65,0.04,,,0.04,WUHU216PEETBRO,2013-05-11 20:43:00,
2013-05-11 16:48:00,82.0,67.9,30.01,SSW,208,6.3,10.0,62,0.04,,,0.04,WUHU216PEETBRO,2013-05-11 20:48:00,
2013-05-11 16:53:00,82.6,68.3,30.00,WSW,242,5.3,10.0,62,0.04,,,0.04,WUHU216PEETBRO,2013-05-11 20:53:00,
2013-05-11 16:58:00,83.3,67.4,30.00,SSW,207,8.0,10.0,58,0.00,,,0.04,WUHU216PEETBRO,2013-05-11 20:58:00,
2013-05-11 17:03:00,83.8,67.1,30.01,WSW,252,6.5,10.1,57,0.00,,,0.04,WUHU216PEETBRO,2013-05-11 21:03:00,
2013-05-11 17:08:00,84.3,66.7,30.01,South,190,7.0,10.1,55,0.00,,,0.04,WUHU216PEETBRO,2013-05-11 21:08:00,
2013-05-11 17:13:00,84.4,66.9,30.01,SW,230,7.1,8.5,55,0.00,,,0.04,WUHU216PEETBRO,2013-05-11 21:13:00,
2013-05-11 17:18:00,84.5,67.5,30.01,WSW,255,13.5,15.7,56,0.00,,,0.04,WUHU216PEETBRO,2013-05-11 21:18:00,
2013-05-11 17:23:00,84.5,67.3,30.01,SW,218,9.0,15.7,56,0.00,,,0.04,WUHU216PEETBRO,2013-05-11 21:23:00,
2013-05-11 17:28:00,84.8,67.6,30.01,WSW,254,6.8,14.9,56,0.00,,,0.04,WUHU216PEETBRO,2013-05-11 21:28:00,
2013-05-11 17:33:00,84.7,67.0,30.01,WSW,237,15.0,16.5,55,0.00,,,0.04,WUHU216PEETBRO,2013-05-11 21:33:00,
2013-05-11 17:38:00,84.6,67.4,30.01,SW,227,6.8,16.5,56,0.00,,,0.04,WUHU216PEETBRO,2013-05-11 21:38:00,
2013-05-11 17:43:00,84.4,66.6,30.01,WSW,245,6.6,12.1,55,0.00,,,0.04,WUHU216PEETBRO,2013-05-11 21:43:00,
2013-05-11 17:48:00,84.3,67.3,30.01,WSW,237,6.5,12.1,56,0.00,,,0.04,WUHU216PEETBRO,2013-05-11 21:48:00,
2013-05-11 17:53:00,84.0,67.4,30.01,West,263,11.9,11.9,57,0.00,,,0.04,WUHU216PEETBRO,2013-05-11 21:53:00,
2013-05-11 17:58:00,83.8,67.7,30.01,West,280,7.0,11.9,58,0.00,,,0.04,WUHU216PEETBRO,2013-05-11 21:58:00,
2013-05-11 18:03:00,83.8,67.7,30.01,WSW,256,7.9,10.6,58,0.00,,,0.04,WUHU216PEETBRO,2013-05-11 22:03:00,
2013-05-11 18:08:00,83.6,67.8,30.01,West,265,5.3,10.6,59,0.00,,,0.04,WUHU216PEETBRO,2013-05-11 22:08:00,
2013-05-11 18:13:00,83.5,68.4,30.02,West,263,5.5,9.4,60,0.00,,,0.04,WUHU216PEETBRO,2013-05-11 22:13:00,
2013-05-11 18:18:00,83.0,68.0,30.02,SSW,196,8.0,12.8,60,0.00,,,0.04,WUHU216PEETBRO,2013-05-11 22:18:00,
2013-05-11 18:23:00,82.8,68.4,30.02,SW,225,8.8,12.8,61,0.00,,,0.04,WUHU216PEETBRO,2013-05-11 22:23:00,
2013-05-11 18:28:00,82.9,68.4,30.02,WSW,249,5.9,10.8,61,0.00,,,0.04,WUHU216PEETBRO,2013-05-11 22:28:00,
2013-05-11 18:33:00,82.7,68.6,30.02,WSW,258,6.2,12.1,62,0.00,,,0.04,WUHU216PEETBRO,2013-05-11 22:33:00,
2013-05-11 18:38:00,82.7,68.8,30.02,WSW,247,7.2,12.1,62,0.00,,,0.04,WUHU216PEETBRO,2013-05-11 22:38:00,
2013-05-11 18:43:00,82.6,68.8,30.02,WSW,254,4.4,8.7,63,0.00,,,0.04,WUHU216PEETBRO,2013-05-11 22:43:00,
2013-05-11 18:48:00,82.6,68.8,30.02,SSW,210,5.4,8.4,63,0.00,,,0.04,WUHU216PEETBRO,2013-05-11 22:48:00,
2013-05-11 18:53:00,82.6,68.9,30.02,NNW,348,2.6,11.4,63,0.00,,,0.04,WUHU216PEETBRO,2013-05-11 22:53:00,
2013-05-11 18:58:00,82.6,68.8,30.02,SSW,207,2.9,11.4,63,0.00,,,0.04,WUHU216PEETBRO,2013-05-11 22:58:00,
2013-05-11 19:03:00,82.6,68.7,30.02,SW,221,0.0,8.1,62,0.00,,,0.04,WUHU216PEETBRO,2013-05-11 23:03:00,
2013-05-11 19:08:00,82.7,68.9,30.02,NNW,335,3.4,8.6,63,0.00,,,0.04,WUHU216PEETBRO,2013-05-11 23:08:00,
2013-05-11 19:13:00,82.6,68.7,30.02,WNW,293,3.5,9.5,62,0.00,,,0.04,WUHU216PEETBRO,2013-05-11 23:13:00,
2013-05-11 19:18:00,82.5,68.8,30.03,WSW,249,0.0,9.5,63,0.00,,,0.04,WUHU216PEETBRO,2013-05-11 23:18:00,
2013-05-11 19:23:00,82.6,69.0,30.03,SSW,199,4.5,7.3,63,0.00,,,0.04,WUHU216PEETBRO,2013-05-11 23:23:00,
2013-05-11 19:28:00,82.6,69.1,30.03,WSW,242,5.4,9.0,63,0.00,,,0.04,WUHU216PEETBRO,2013-05-11 23:28:00,
2013-05-11 19:33:00,82.7,69.0,30.03,NW,314,0.0,9.0,63,0.00,,,0.04,WUHU216PEETBRO,2013-05-11 23:33:00,
2013-05-11 19:38:00,82.6,69.1,30.03,WSW,239,5.5,8.0,63,0.00,,,0.04,WUHU216PEETBRO,2013-05-11 23:38:00,
2013-05-11 19:43:00,82.6,69.3,30.03,West,262,6.5,8.8,64,0.00,,,0.04,WUHU216PEETBRO,2013-05-11 23:43:00,
2013-05-11 19:48:00,82.4,69.2,30.03,WSW,249,8.8,16.2,64,0.00,,,0.04,WUHU216PEETBRO,2013-05-11 23:48:00,
2013-05-11 19:53:00,82.5,69.3,30.04,WSW,255,6.6,16.2,64,0.00,,,0.04,WUHU216PEETBRO,2013-05-11 23:53:00,
2013-05-11 19:58:00,82.1,69.2,30.04,WSW,258,10.0,17.6,64,0.00,,,0.04,WUHU216PEETBRO,2013-05-11 23:58:00,
2013-05-11 20:03:00,81.9,69.5,30.04,NW,314,5.5,17.6,66,0.00,,,0.04,WUHU216PEETBRO,2013-05-12 00:03:00,
2013-05-11 20:08:00,81.4,69.7,30.04,West,273,8.9,15.3,67,0.00,,,0.04,WUHU216PEETBRO,2013-05-12 00:08:00,
2013-05-11 20:13:00,80.9,68.7,30.05,WNW,299,5.7,15.4,66,0.00,,,0.04,WUHU216PEETBRO,2013-05-12 00:13:00,
2013-05-11 20:18:00,80.4,68.6,30.05,WSW,242,11.0,15.7,67,0.00,,,0.04,WUHU216PEETBRO,2013-05-12 00:18:00,
2013-05-11 20:23:00,80.2,67.8,30.05,SW,221,12.5,16.8,65,0.00,,,0.04,WUHU216PEETBRO,2013-05-12 00:23:00,
2013-05-11 20:28:00,79.8,64.9,30.04,WSW,247,9.7,17.3,60,0.00,,,0.04,WUHU216PEETBRO,2013-05-12 00:28:00,
2013-05-11 20:33:00,79.5,63.9,30.04,SW,224,11.8,17.3,59,0.00,,,0.04,WUHU216PEETBRO,2013-05-12 00:33:00,
2013-05-11 20:38:00,79.3,64.2,30.05,West,266,4.2,16.2,60,0.00,,,0.04,WUHU216PEETBRO,2013-05-12 00:38:00,
2013-05-11 20:43:00,79.0,64.6,30.05,WSW,258,5.0,14.8,61,0.00,,,0.04,WUHU216PEETBRO,2013-05-12 00:43:00,
2013-05-11 20:48:00,78.7,64.5,30.05,WSW,247,8.9,13.4,61,0.00,,,0.04,WUHU216PEETBRO,2013-05-12 00:48:00,
2013-05-11 20:53:00,78.5,64.6,30.06,SSW,200,4.8,13.4,62,0.00,,,0.04,WUHU216PEETBRO,2013-05-12 00:53:00,
2013-05-11 20:58:00,78.4,64.9,30.06,West,271,5.4,11.4,63,0.00,,,0.04,WUHU216PEETBRO,2013-05-12 00:58:00,
2013-05-11 21:03:00,78.2,65.2,30.06,NNW,335,0.0,9.2,64,0.00,,,0.04,WUHU216PEETBRO,2013-05-12 01:03:00,
2013-05-11 21:08:00,78.0,65.3,30.06,WSW,239,4.3,7.9,65,0.00,,,0.04,WUHU216PEETBRO,2013-05-12 01:08:00,
2013-05-11 21:13:00,77.9,65.5,30.06,West,272,6.2,6.2,65,0.00,,,0.04,WUHU216PEETBRO,2013-05-12 01:13:00,
2013-05-11 21:18:00,77.8,65.5,30.05,West,279,2.9,7.5,66,0.00,,,0.04,WUHU216PEETBRO,2013-05-12 01:18:00,
2013-05-11 21:23:00,77.7,65.5,30.05,NNE,15,0.0,7.5,66,0.00,,,0.04,WUHU216PEETBRO,2013-05-12 01:23:00,
2013-05-11 21:28:00,77.4,65.4,30.05,SW,218,0.0,4.8,66,0.00,,,0.04,WUHU216PEETBRO,2013-05-12 01:28:00,
2013-05-11 21:33:00,77.3,65.5,30.05,SW,228,0.0,3.3,66,0.00,,,0.04,WUHU216PEETBRO,2013-05-12 01:33:00,
2013-05-11 21:38:00,77.3,65.6,30.05,SW,228,0.0,3.3,67,0.00,,,0.04,WUHU216PEETBRO,2013-05-12 01:38:00,
2013-05-11 21:43:00,77.2,65.7,30.05,SW,228,0.0,0.0,67,0.00,,,0.04,WUHU216PEETBRO,2013-05-12 01:43:00,
2013-05-11 21:48:00,77.1,65.7,30.05,SW,228,0.0,0.0,67,0.00,,,0.04,WUHU216PEETBRO,2013-05-12 01:48:00,
2013-05-11 21:53:00,77.0,65.6,30.05,SSW,199,0.0,2.2,67,0.00,,,0.04,WUHU216PEETBRO,2013-05-12 01:53:00,
2013-05-11 21:58:00,76.9,65.6,30.06,SSW,199,0.0,2.2,68,0.00,,,0.04,WUHU216PEETBRO,2013-05-12 01:58:00,
2013-05-11 22:03:00,76.9,65.8,30.06,SSW,199,0.0,0.0,68,0.00,,,0.04,WUHU216PEETBRO,2013-05-12 02:03:00,
2013-05-11 22:08:00,76.9,65.8,30.07,SSW,207,4.5,4.6,68,0.00,,,0.04,WUHU216PEETBRO,2013-05-12 02:08:00,
2013-05-11 22:13:00,76.8,65.9,30.07,SSW,200,0.0,4.6,69,0.00,,,0.04,WUHU216PEETBRO,2013-05-12 02:13:00,
2013-05-11 22:18:00,76.8,65.9,30.06,South,180,0.0,4.7,69,0.00,,,0.04,WUHU216PEETBRO,2013-05-12 02:18:00,
2013-05-11 22:23:00,76.7,65.8,30.06,South,180,0.0,4.7,69,0.00,,,0.04,WUHU216PEETBRO,2013-05-12 02:23:00,
2013-05-11 22:28:00,76.6,65.7,30.06,South,180,0.0,0.0,69,0.00,,,0.04,WUHU216PEETBRO,2013-05-12 02:28:00,
2013-05-11 22:33:00,76.6,65.8,30.06,South,180,0.0,0.0,69,0.00,,,0.04,WUHU216PEETBRO,2013-05-12 02:33:00,
2013-05-11 22:38:00,76.4,65.6,30.06,South,180,0.0,0.0,69,0.00,,,0.04,WUHU216PEETBRO,2013-05-12 02:38:00,
2013-05-11 22:43:00,76.3,65.6,30.06,South,180,0.0,0.0,69,0.00,,,0.04,WUHU216PEETBRO,2013-05-12 02:43:00,
2013-05-11 22:48:00,76.2,65.6,30.06,South,180,0.0,0.0,69,0.00,,,0.04,WUHU216PEETBRO,2013-05-12 02:48:00,
2013-05-11 22:53:00,76.1,65.6,30.06,South,180,0.0,0.0,69,0.00,,,0.04,WUHU216PEETBRO,2013-05-12 02:53:00,
2013-05-11 22:58:00,76.0,65.5,30.06,South,180,0.0,0.0,69,0.00,,,0.04,WUHU216PEETBRO,2013-05-12 02:58:00,
2013-05-11 23:03:00,75.9,65.4,30.06,South,180,0.0,0.0,70,0.00,,,0.04,WUHU216PEETBRO,2013-05-12 03:03:00,
2013-05-11 23:08:00,75.9,65.5,30.06,South,180,0.0,0.0,70,0.00,,,0.04,WUHU216PEETBRO,2013-05-12 03:08:00,
2013-05-11 23:13:00,75.8,65.7,30.06,South,180,0.0,0.0,70,0.00,,,0.04,WUHU216PEETBRO,2013-05-12 03:13:00,
2013-05-11 23:18:00,75.7,65.7,30.06,South,180,0.0,0.0,71,0.00,,,0.04,WUHU216PEETBRO,2013-05-12 03:18:00,
2013-05-11 23:23:00,75.7,65.9,30.06,South,180,0.0,0.0,71,0.00,,,0.04,WUHU216PEETBRO,2013-05-12 03:23:00,
2013-05-11 23:28:00,75.7,66.0,30.06,ESE,112,0.0,2.5,71,0.00,,,0.04,WUHU216PEETBRO,2013-05-12 03:28:00,
2013-05-11 23:33:00,75.6,66.0,30.06,SE,136,0.0,3.0,72,0.00,,,0.04,WUHU216PEETBRO,2013-05-12 03:33:00,
2013-05-11 23:38:00,75.5,66.1,30.06,SE,127,0.0,3.2,72,0.00,,,0.04,WUHU216PEETBRO,2013-05-12 03:38:00,
2013-05-11 23:43:00,75.4,66.1,30.06,ESE,118,0.0,4.8,72,0.00,,,0.04,WUHU216PEETBRO,2013-05-12 03:43:00,
2013-05-11 23:48:00,75.4,66.2,30.06,SE,146,0.0,4.8,73,0.00,,,0.04,WUHU216PEETBRO,2013-05-12 03:48:00,
2013-05-11 23:53:00,75.2,66.4,30.06,SE,146,0.0,4.3,74,0.00,,,0.04,WUHU216PEETBRO,2013-05-12 03:53:00,
2013-05-11 23:58:00,75.0,66.3,30.06,SE,146,0.0,0.0,74,0.00,,,0.04,WUHU216PEETBRO,2013-05-12 03:58:00,